Torna al catalogo

CZ-6A DEB

AttivoPO
NORAD 61325·DEBRIS·🇨🇳 China

Lanciato Aug 6, 2024 da Taiyuan Satellite Launch Center

Loading…

Prossimi Passaggi (prossime 24 ore)

TLE

AggiornatoSource: Space-Track

Epoca: Sep 14, 2026, 10:40 UTC

1 61325U 24140UN  26257.44474002  .00001663  00000-0  32091-3 0  9999
2 61325  88.9246 251.9524 0079965 228.2276 131.2086 14.60984533107797

Traccia CZ-6A DEB in tempo reale con AllMySat

Download on the App Store